Home > Time Zones > World Clock > Weather > U.S.A. > Erie > Past weeks

Flag for U.S.A. Weather past 2 weeks in Erie, Pennsylvania, U.S.A.

Now
75 °F

Clear.


Feels Like: 76 °F
Forecast: 71 / 84 °F
Wind: 3 mph from Southeast

Location: Erie International Airport

Current Time: Sep 4, 2015 at 10:02:43 PM

Latest Report: Sep 4, 2015 at 8:51 PM


Visibility: 10 mi

Pressure: 30.09 "Hg

Humidity: 74%

Dew point: 66 °F

Location of ErieLocation

Historic Weather in Erie — Graph

°F

Erie temperature yesterday

Maximum temperature yesterday: 83 °F (at 12:51 PM)
Minimum temperature yesterday: 70 °F (at 4:51 AM)
Average temperature yesterday: 75 °F

Past Weeks' High & Low Weather Summary

 TemperatureHumidityPressure
High84 °F (Sep 1, 2:51 PM)90% (Aug 26, 5:01 AM)30.22 "Hg (Aug 26, 5:01 AM)
Low54 °F (Aug 28, 4:51 AM)38% (Aug 21, 9:51 AM)29.80 "Hg (Aug 24, 1:51 AM)
Average70 °F69%30.05 "Hg
* Reported Aug 20 8:51 PM — Sep 4 8:51 PM, Erie, Weather by CustomWeather, © 2015

Note: Actual official high and low records may vary slightly from our data, if they occured in-between our weather recording intervals... More about our weather records

Advertising

Erie weather history for previous 24 hours

 ConditionsComfort  
Time TempWeatherWind HumidityBarometerVisibility
8:51 PM
Fri, Sep 4
75 °FClear.3 mph74%30.09 "Hg10 mi
7:51 PM79 °FSunny.3 mph65%30.07 "Hg10 mi
6:51 PM81 °FSunny.5 mph58%30.06 "Hg10 mi
5:51 PM82 °FSunny.7 mph55%30.05 "Hg10 mi
4:51 PM84 °FSunny.7 mph53%30.04 "Hg10 mi
3:51 PM81 °FSunny.9 mph67%30.05 "Hg7 mi
2:51 PM82 °FSunny.6 mph65%30.06 "Hg8 mi
1:51 PM81 °FScattered clouds.8 mph65%30.06 "Hg7 mi
12:51 PM83 °FSunny.9 mph61%30.04 "Hg8 mi
11:51 AM84 °FSunny.6 mph49%30.04 "Hg10 mi
10:51 AM78 °FScattered clouds.5 mph69%30.06 "Hg8 mi
9:51 AM77 °FSunny.5 mph74%30.05 "Hg7 mi
9:01 AM73 °FHaze.3 mph81%30.06 "Hg5 mi
8:00 AM73 °FScattered clouds.No wind81%30.04 "Hg4 mi
6:51 AM70 °FFog.No wind90%30.01 "Hg4 mi
6:04 AM71 °FFog.5 mph87%30.01 "Hg5 mi
4:51 AM71 °FFog.No wind87%29.99 "Hg5 mi
4:00 AM70 °FFog.3 mph87%29.99 "Hg5 mi
2:51 AM71 °FFog.5 mph87%29.98 "Hg5 mi
1:51 AM71 °FFog.3 mph87%29.98 "Hg4 mi
12:51 AM73 °FPassing clouds.5 mph84%29.97 "Hg4 mi
11:51 PM
Thu, Sep 3
73 °FPassing clouds.6 mph84%29.94 "Hg4 mi
10:51 PM73 °FFog.3 mph88%29.95 "Hg5 mi
Weather by CustomWeather, © 2015

See weather overviewHow to use our weather pages